Marrakech, Morocco

5:41 AM WET on March 25, 2017 (GMT +0000)
Marrakech

Weather History for 60230 - May, 2013

Change the Weather History Date:

Thursday, May 30, 2013

  Actual Average Record
Temperature  
Mean Temperature 66 °F -  
Max Temperature 80 °F 90 °F - ()
Min Temperature 53 °F 63 °F - ()
Cooling Degree Days 2    
Growing Degree Days 16 (Base 50)    
Moisture  
Dew Point 50 °F    
Average Humidity 57    
Maximum Humidity 82    
Minimum Humidity 20    
Precipitation  
Precipitation 0.00 in 0.01 in - ()
Sea Level Pressure  
Sea Level Pressure 30.07 in    
Wind  
Wind Speed 3 mph ()    
Max Wind Speed 13 mph    
Max Gust Speed 22 mph    
Visibility 6.2 miles    
Events      
T = Trace of Precipitation, MM = Missing Value Source: Averaged Metar Reports

Daily Weather History Graph

Daily Weather History Graph

Search for Another Location

Airport or City:

Trip Planner

Search our weather history database for the weather conditions in past years. The results will help you decide how hot, cold, wet, or windy it might be!

Date:

Astronomy

May. 30, 2013 Rise Set
Actual Time 6:28 AM WEST 8:31 PM WEST
Civil Twilight 6:00 AM WEST 8:58 PM WEST
Nautical Twilight 5:27 AM WEST 9:32 PM WEST
Astronomical Twilight 4:51 AM WEST 10:08 PM WEST
Moon 12:35 AM WEST (5/30) 12:07 PM WEST (5/30)
Length of Visible Light 14h 58m
Length of Day
14h 03m
Waning Gibbous, 65% of the Moon is Illuminated
May 30
Waning Gibbous
May 31
Last Quarter
Jun 8
New
Jun 16
First Quarter
Jun 23
Full

Hourly Weather History & Observations

Time (WEST) Temp. Dew Point Humidity Pressure Visibility Wind Dir Wind Speed Gust Speed Precip Events Conditions
12:00 AM 62.6 °F 50.0 °F 63% 30.09 in - NNE 5.8 mph - N/A   Clear
12:30 AM 62.6 °F 48.2 °F 59% 30.09 in - NNE 4.6 mph - N/A   Clear
1:00 AM 61 °F 49 °F 54% 30.09 in 6 mi Calm Calm - -  
1:00 AM 60.8 °F 50.0 °F 68% 30.12 in 6.2 mi Calm Calm - N/A   Unknown
1:30 AM 60.8 °F 50.0 °F 68% 30.12 in 6.2 mi Calm Calm - N/A   Unknown
2:00 AM 60.8 °F 48.2 °F 63% 30.12 in 6.2 mi Calm Calm - N/A   Unknown
2:30 AM 59.0 °F 50.0 °F 72% 30.09 in 6.2 mi Calm Calm - N/A   Unknown
3:00 AM 59.0 °F 50.0 °F 72% 30.09 in 6.2 mi Calm Calm - N/A   Unknown
3:30 AM 59.0 °F 50.0 °F 72% 30.09 in 6.2 mi Calm Calm - N/A   Unknown
4:00 AM 58 °F 49 °F 65% 30.07 in 6 mi Calm Calm - -  
4:00 AM 57.2 °F 50.0 °F 77% 30.06 in - Calm Calm - N/A   Clear
4:30 AM 57.2 °F 48.2 °F 72% 30.09 in - Calm Calm - N/A   Clear
5:00 AM 57.2 °F 50.0 °F 77% 30.09 in - Calm Calm - N/A   Clear
5:30 AM 55.4 °F 48.2 °F 77% 30.06 in - Calm Calm - N/A   Clear
6:00 AM 55.4 °F 48.2 °F 77% 30.09 in - Calm Calm - N/A   Clear
6:30 AM 53.6 °F 48.2 °F 82% 30.09 in - Calm Calm - N/A   Clear
7:00 AM 54 °F 49 °F 76% 30.11 in 6 mi Calm Calm - -  
7:00 AM 53.6 °F 48.2 °F 82% 30.09 in - Calm Calm - N/A   Clear
7:30 AM 53.6 °F 48.2 °F 82% 30.09 in - West 8.1 mph - N/A   Clear
8:00 AM 55.4 °F 50.0 °F 82% 30.12 in - WSW 6.9 mph - N/A   Clear
8:30 AM 57.2 °F 50.0 °F 77% 30.12 in - West 3.5 mph - N/A   Clear
9:00 AM 59.0 °F 50.0 °F 72% 30.09 in - Calm Calm - N/A   Clear
9:30 AM 60.8 °F 50.0 °F 68% 30.09 in - Calm Calm - N/A   Clear
10:00 AM 63 °F 51 °F 55% 30.07 in 6 mi Calm Calm - -  
10:00 AM 62.6 °F 50.0 °F 63% 30.09 in - Calm Calm - N/A   Clear
10:30 AM 64.4 °F 51.8 °F 64% 30.09 in - Calm Calm - N/A   Clear
11:00 AM 66.2 °F 51.8 °F 60% 30.09 in - West 5.8 mph - N/A   Clear
11:30 AM 66.2 °F 51.8 °F 60% 30.09 in - WNW 5.8 mph - N/A   Clear
12:00 PM 68.0 °F 50.0 °F 52% 30.09 in - Calm Calm - N/A   Clear
12:30 PM 69.8 °F 50.0 °F 49% 30.09 in 6.2 mi WNW 6.9 mph - N/A   Partly Cloudy
1:00 PM 72 °F 49 °F 34% 30.04 in 6 mi NNW 2.3 mph - -   Scattered Clouds
1:00 PM 71.6 °F 50.0 °F 46% 30.09 in 6.2 mi NNW 4.6 mph - N/A   Partly Cloudy
1:30 PM 73.4 °F 50.0 °F 44% 30.09 in 6.2 mi Variable 4.6 mph - N/A   Partly Cloudy
2:00 PM 75.2 °F 50.0 °F 41% 30.06 in 6.2 mi WNW 6.9 mph - N/A   Partly Cloudy
2:30 PM 77.0 °F 46.4 °F 34% 30.06 in 6.2 mi West 5.8 mph - N/A   Scattered Clouds
3:00 PM 77.0 °F 46.4 °F 34% 30.06 in 6.2 mi Variable 2.3 mph - N/A   Scattered Clouds
3:30 PM 78.8 °F 46.4 °F 32% 30.06 in 6.2 mi NNE 6.9 mph - N/A   Mostly Cloudy
4:00 PM 80 °F 46 °F 20% 29.97 in 6 mi NW 8.1 mph - -   Mostly Cloudy
4:00 PM 80.6 °F 46.4 °F 30% 30.04 in 6.2 mi NW 8.1 mph - N/A   Mostly Cloudy
4:30 PM 78.8 °F 46.4 °F 32% 30.04 in 6.2 mi Variable 9.2 mph - N/A   Mostly Cloudy
5:00 PM 80.6 °F 48.2 °F 32% 30.04 in 6.2 mi NW 3.5 mph - N/A   Mostly Cloudy
5:30 PM 78.8 °F 50.0 °F 36% 30.04 in 6.2 mi North 8.1 mph - N/A   Mostly Cloudy
6:00 PM 78.8 °F 50.0 °F 36% 30.04 in 6.2 mi North 9.2 mph - N/A   Mostly Cloudy
6:30 PM 78.8 °F 50.0 °F 36% 30.04 in 6.2 mi NNW 11.5 mph - N/A   Mostly Cloudy
7:00 PM 76 °F 51 °F 31% 29.97 in 6 mi North 12.7 mph - -   Mostly Cloudy
7:00 PM 75.2 °F 51.8 °F 44% 30.04 in 6.2 mi North 12.7 mph - N/A   Mostly Cloudy
7:30 PM 73.4 °F 50.0 °F 44% 30.04 in 6.2 mi North 10.4 mph 21.9 mph N/A   Scattered Clouds
8:00 PM 73.4 °F 51.8 °F 47% 30.04 in 6.2 mi North 11.5 mph - N/A   Scattered Clouds
8:30 PM 69.8 °F 51.8 °F 53% 30.06 in 6.2 mi North 12.7 mph - N/A   Scattered Clouds
9:00 PM 69.8 °F 51.8 °F 53% 30.06 in 6.2 mi North 11.5 mph - N/A   Scattered Clouds
9:30 PM 68.0 °F 51.8 °F 56% 30.06 in 6.2 mi North 9.2 mph - N/A   Scattered Clouds
10:00 PM 66 °F 52 °F 50% 30.06 in 6 mi NNE 11.5 mph - -   Partly Cloudy
10:00 PM 66.2 °F 51.8 °F 60% 30.09 in 6.2 mi NNE 10.4 mph - N/A   Scattered Clouds
10:30 PM 64.4 °F 51.8 °F 64% 30.09 in 6.2 mi NNE 8.1 mph - N/A   Scattered Clouds
11:00 PM 64.4 °F 51.8 °F 64% 30.09 in 6.2 mi NNE 9.2 mph - N/A   Scattered Clouds
11:30 PM 62.6 °F 51.8 °F 68% 30.12 in 6.2 mi NNE 8.1 mph - N/A   Scattered Clouds